Weather History for KPMV - October, 2011

Change the Weather History Date:

Monday, October 10, 2011

  Actual Average (KOFF) Record (KOFF)
Temperature  
Mean Temperature 64 °F -  
Max Temperature 71 °F 66 °F 80 °F (2013)
Min Temperature 55 °F 44 °F 26 °F (2012)
Degree Days  
Heating Degree Days 1    
Growing Degree Days 14 (Base 50)    
Moisture  
Dew Point 55 °F    
Average Humidity 79    
Maximum Humidity 100    
Minimum Humidity 46    
Precipitation  
Precipitation 0.03 in - - ()
Sea Level Pressure  
Sea Level Pressure 30.01 in    
Wind  
Wind Speed 3 mph (South)    
Max Wind Speed 10 mph    
Max Gust Speed -    
Visibility 10 miles    
Events Rain    
Averages and records for this station are not official NWS values.
T = Trace of Precipitation, MM = Missing Value Source: NWS Daily Summary

Daily Weather History Graph

Daily Weather History Graph

Search for Another Location

Airport or City:

Trip Planner

Search our weather history database for the weather conditions in past years. The results will help you decide how hot, cold, wet, or windy it might be!

Date:

Astronomy

Oct. 10, 2011 Rise Set
Actual Time 7:29 AM CDT 6:51 PM CDT
Civil Twilight 7:01 AM CDT 7:18 PM CDT
Nautical Twilight 6:30 AM CDT 7:50 PM CDT
Astronomical Twilight 5:58 AM CDT 8:22 PM CDT
Moon 5:55 PM CDT (10/10) 6:11 AM CDT (10/10)
Length of Visible Light 12h 16m
Length of Day
11h 21m
Waxing Gibbous, 98% of the Moon is Illuminated
Oct 10
Waxing Gibbous
Oct 11
Full
Oct 19
Last Quarter
Oct 26
New
Nov 2
First Quarter

Hourly Weather History & Observations

Time (CDT) Temp. Dew Point Humidity Pressure Visibility Wind Dir Wind Speed Gust Speed Precip Events Conditions
12:15 AM 60.8 °F 57.2 °F 88% 30.08 in 10.0 mi Calm Calm - N/A   Scattered Clouds
12:35 AM 60.8 °F 57.2 °F 88% 30.08 in 10.0 mi Calm Calm - N/A   Mostly Cloudy
12:55 AM 60.8 °F 57.2 °F 88% 30.07 in 10.0 mi Calm Calm - N/A   Mostly Cloudy
1:15 AM 60.8 °F 57.2 °F 88% 30.06 in 10.0 mi Calm Calm - N/A   Scattered Clouds
1:35 AM 59.0 °F 55.4 °F 88% 30.07 in 10.0 mi Calm Calm - N/A   Mostly Cloudy
1:55 AM 60.8 °F 57.2 °F 88% 30.06 in 10.0 mi Calm Calm - N/A   Overcast
2:15 AM 60.8 °F 57.2 °F 88% 30.06 in 10.0 mi Calm Calm - N/A   Overcast
2:35 AM 60.8 °F 57.2 °F 88% 30.07 in 10.0 mi Calm Calm - N/A   Overcast
2:55 AM 60.8 °F 57.2 °F 88% 30.06 in 10.0 mi South 4.6 mph - N/A Rain Light Rain
3:35 AM 60.8 °F 57.2 °F 88% 30.06 in 10.0 mi SSE 3.5 mph - N/A   Overcast
3:55 AM 60.8 °F 57.2 °F 88% 30.04 in 10.0 mi Calm Calm - N/A Rain Light Rain
4:15 AM 60.8 °F 57.2 °F 88% 30.05 in 10.0 mi SE 4.6 mph - N/A   Overcast
4:35 AM 60.8 °F 57.2 °F 88% 30.04 in 10.0 mi Calm Calm - N/A   Drizzle
4:55 AM 59.0 °F 57.2 °F 94% 30.04 in 10.0 mi South 3.5 mph - N/A   Overcast
5:15 AM 59.0 °F 57.2 °F 94% 30.03 in 10.0 mi ESE 4.6 mph - N/A   Overcast
5:35 AM 59.0 °F 57.2 °F 94% 30.04 in 10.0 mi SSE 4.6 mph - N/A Rain Light Rain
5:55 AM 59.0 °F 57.2 °F 94% 30.05 in 10.0 mi SE 5.8 mph - N/A Rain Light Rain
6:15 AM 59.0 °F 57.2 °F 94% 30.04 in 7.0 mi SSE 5.8 mph - 0.01 in Rain Light Rain
6:35 AM 59.0 °F 57.2 °F 94% 30.04 in 10.0 mi SSE 5.8 mph - 0.01 in   Light Drizzle
6:55 AM 59.0 °F 57.2 °F 94% 30.03 in 10.0 mi Calm Calm - 0.02 in Rain Light Rain
7:15 AM 59.0 °F 57.2 °F 94% 30.05 in 10.0 mi SW 5.8 mph - N/A   Overcast
7:35 AM 59.0 °F 57.2 °F 94% 30.04 in 10.0 mi Calm Calm - 0.01 in   Overcast
8:15 AM 59.0 °F 57.2 °F 94% 30.04 in 10.0 mi South 5.8 mph - N/A   Overcast
8:35 AM 59.0 °F 57.2 °F 94% 30.04 in 10.0 mi SSW 4.6 mph - N/A   Overcast
8:55 AM 59.0 °F 57.2 °F 94% 30.05 in 10.0 mi South 4.6 mph - N/A   Overcast
9:15 AM 59.0 °F 57.2 °F 94% 30.05 in 10.0 mi SSE 4.6 mph - N/A   Overcast
9:35 AM 59.0 °F 59.0 °F 100% 30.06 in 10.0 mi South 5.8 mph - N/A   Overcast
9:55 AM 59.0 °F 57.2 °F 94% 30.06 in 10.0 mi South 8.1 mph - N/A   Overcast
10:35 AM 60.8 °F 57.2 °F 88% 30.06 in 10.0 mi SW 10.4 mph - N/A   Mostly Cloudy
10:55 AM 62.6 °F 57.2 °F 82% 30.05 in 10.0 mi SW 8.1 mph - N/A   Scattered Clouds
11:15 AM 60.8 °F 55.4 °F 82% 30.05 in 10.0 mi SSW 10.4 mph - N/A   Mostly Cloudy
11:35 AM 62.6 °F 55.4 °F 77% 30.05 in 10.0 mi SSW 8.1 mph - N/A   Overcast
11:55 AM 62.6 °F 55.4 °F 77% 30.04 in 10.0 mi SSW 9.2 mph - N/A   Overcast
12:15 PM 62.6 °F 55.4 °F 77% 30.04 in 10.0 mi SSW 4.6 mph - N/A   Overcast
12:35 PM 64.4 °F 57.2 °F 77% 30.04 in 10.0 mi SSW 5.8 mph - N/A   Overcast
1:15 PM 66.2 °F 55.4 °F 68% 30.03 in 10.0 mi South 10.4 mph - N/A   Overcast
1:35 PM 66.2 °F 55.4 °F 68% 30.02 in 10.0 mi SSW 9.2 mph - N/A   Overcast
1:55 PM 68.0 °F 53.6 °F 60% 30.01 in 10.0 mi SSW 8.1 mph - N/A   Mostly Cloudy
2:15 PM 68.0 °F 53.6 °F 60% 30.00 in 10.0 mi SW 8.1 mph - N/A   Scattered Clouds
2:35 PM 69.8 °F 51.8 °F 53% 29.99 in 10.0 mi Calm Calm - N/A   Scattered Clouds
3:15 PM 69.8 °F 51.8 °F 53% 29.98 in 10.0 mi Calm Calm - N/A   Scattered Clouds
3:55 PM 69.8 °F 51.8 °F 53% 29.97 in 10.0 mi Calm Calm - N/A   Scattered Clouds
4:35 PM 71.6 °F 50.0 °F 46% 29.96 in 10.0 mi SSW 5.8 mph - N/A   Clear
4:55 PM 71.6 °F 50.0 °F 46% 29.96 in 10.0 mi South 5.8 mph - N/A   Clear
5:15 PM 69.8 °F 51.8 °F 53% 29.96 in 10.0 mi SSE 4.6 mph - N/A   Clear
5:35 PM 69.8 °F 50.0 °F 49% 29.95 in 7.0 mi SSE 6.9 mph - N/A   Clear
5:55 PM 69.8 °F 51.8 °F 53% 29.94 in 10.0 mi SE 5.8 mph - N/A   Clear
6:15 PM 68.0 °F 50.0 °F 52% 29.94 in 10.0 mi SSE 4.6 mph - N/A   Clear
6:35 PM 68.0 °F 50.0 °F 52% 29.94 in 10.0 mi SSE 4.6 mph - N/A   Clear
7:15 PM 62.6 °F 51.8 °F 68% 29.94 in 10.0 mi SSE 3.5 mph - N/A   Clear
7:55 PM 62.6 °F 51.8 °F 68% 29.94 in 10.0 mi SSE 4.6 mph - N/A   Clear
8:15 PM 60.8 °F 51.8 °F 72% 29.96 in 10.0 mi Calm Calm - N/A   Clear
8:35 PM 60.8 °F 51.8 °F 72% 29.96 in 10.0 mi SSE 4.6 mph - N/A   Clear
8:55 PM 59.0 °F 51.8 °F 77% 29.96 in 10.0 mi SSE 4.6 mph - N/A   Clear
9:15 PM 59.0 °F 51.8 °F 77% 29.95 in 10.0 mi SSE 6.9 mph - N/A   Clear
9:35 PM 59.0 °F 51.8 °F 77% 29.96 in 10.0 mi South 5.8 mph - N/A   Clear
9:55 PM 59.0 °F 51.8 °F 77% 29.96 in 10.0 mi SSE 6.9 mph - N/A   Clear
10:35 PM 57.2 °F 51.8 °F 82% 29.96 in 10.0 mi SSE 8.1 mph - N/A   Clear
10:55 PM 57.2 °F 51.8 °F 82% 29.96 in 10.0 mi South 6.9 mph - N/A   Clear
11:15 PM 57.2 °F 51.8 °F 82% 29.96 in 10.0 mi South 8.1 mph - N/A   Clear
11:35 PM 57.2 °F 51.8 °F 82% 29.96 in 10.0 mi SSE 6.9 mph - N/A   Clear
11:55 PM 55.4 °F 51.8 °F 88% 29.96 in 10.0 mi South 5.8 mph - N/A   Clear